When you browse on this site, cookies collect data to enhance your experience and personalize the content and advertising you see.
Visit our Privacy Policy to learn more. By continuing to use the site, you agree to this use of cookies and data.
  • In Sweden
  • List of Countries
  • For 7 days
  • Water Temperature
  • Weather Map
  • Weather Widgets
  • user-avatar
    Login

    Hourly Weather Bhopal

    Today, 22 February, Saturday

    Time Temperature Precipitation Wind Pressure Humidity
    00:00 +20°C° 0 mm 2 mps 719 mmHg 34%
    01:00 +19°C° 0 mm 2 mps 719 mmHg 35%
    02:00 +19°C° 0 mm 2 mps 718 mmHg 35%
    03:00 +18°C° 0 mm 2 mps 718 mmHg 35%
    04:00 +17°C° 0 mm 3 mps 718 mmHg 34%
    05:00 +17°C° 0 mm 3 mps 718 mmHg 37%
    06:00 +18°C° 0 mm 3 mps 719 mmHg 38%
    07:00 +19°C° 0 mm 3 mps 720 mmHg 40%
    08:00 +20°C° 0 mm 3 mps 721 mmHg 42%
    09:00 +24°C° 0 mm 3 mps 721 mmHg 36%
    10:00 +26°C° 0 mm 2 mps 721 mmHg 31%
    11:00 +28°C° 0 mm 2 mps 721 mmHg 27%
    12:00 +30°C° 0 mm 2 mps 720 mmHg 25%
    13:00 +31°C° 0 mm 2 mps 719 mmHg 23%
    14:00 +32°C° 0 mm 2 mps 718 mmHg 20%
    15:00 +32°C° 0 mm 2 mps 718 mmHg 20%
    16:00 +31°C° 0 mm 2 mps 718 mmHg 19%
    17:00 +31°C° 0 mm 3 mps 717 mmHg 19%
    18:00 +29°C° 0 mm 3 mps 718 mmHg 20%
    19:00 +26°C° 0 mm 3 mps 718 mmHg 21%
    20:00 +24°C° 0 mm 3 mps 718 mmHg 23%
    21:00 +22°C° 0 mm 3 mps 718 mmHg 25%
    22:00 +21°C° 0 mm 4 mps 718 mmHg 28%
    23:00 +20°C° 0 mm 4 mps 718 mmHg 31%

    Tomorrow, 23 February, Sunday

    Time Temperature Precipitation Wind Pressure Humidity
    00:00 +19°C° 0 mm 4 mps 718 mmHg 35%
    01:00 +19°C° 0 mm 4 mps 718 mmHg 39%
    02:00 +18°C° 0 mm 3 mps 717 mmHg 43%
    03:00 +17°C° 0 mm 3 mps 717 mmHg 45%
    04:00 +17°C° 0 mm 3 mps 717 mmHg 48%
    05:00 +17°C° 0 mm 3 mps 717 mmHg 50%
    06:00 +18°C° 0 mm 3 mps 718 mmHg 48%
    07:00 +19°C° 0 mm 3 mps 718 mmHg 46%
    08:00 +20°C° 0 mm 3 mps 719 mmHg 43%
    09:00 +24°C° 0 mm 3 mps 719 mmHg 37%
    10:00 +27°C° 0 mm 3 mps 719 mmHg 31%
    11:00 +30°C° 0 mm 3 mps 719 mmHg 24%
    12:00 +31°C° 0 mm 2 mps 719 mmHg 22%
    13:00 +32°C° 0 mm 2 mps 718 mmHg 19%
    14:00 +33°C° 0 mm 1 mps 717 mmHg 16%
    15:00 +34°C° 0 mm 2 mps 716 mmHg 17%
    16:00 +32°C° 0 mm 2 mps 716 mmHg 17%
    17:00 +31°C° 0 mm 2 mps 716 mmHg 18%
    18:00 +29°C° 0 mm 3 mps 716 mmHg 22%
    19:00 +27°C° 0 mm 3 mps 716 mmHg 26%
    20:00 +23°C° 0 mm 4 mps 716 mmHg 29%
    21:00 +23°C° 0 mm 4 mps 716 mmHg 33%
    22:00 +22°C° 0 mm 4 mps 716 mmHg 36%
    23:00 +21°C° 0 mm 4 mps 716 mmHg 39%

    Day after tomorrow, 24 February, Monday

    Time Temperature Precipitation Wind Pressure Humidity
    00:00 +20°C° 0 mm 4 mps 716 mmHg 43%
    01:00 +19°C° 0 mm 3 mps 716 mmHg 47%
    02:00 +18°C° 0 mm 3 mps 715 mmHg 52%
    03:00 +18°C° 0 mm 3 mps 715 mmHg 54%
    04:00 +17°C° 0 mm 3 mps 715 mmHg 57%
    05:00 +17°C° 0 mm 3 mps 715 mmHg 59%
    06:00 +18°C° 0 mm 3 mps 716 mmHg 56%
    07:00 +20°C° 0 mm 3 mps 717 mmHg 52%
    08:00 +21°C° 0 mm 4 mps 717 mmHg 49%
    09:00 +24°C° 0 mm 3 mps 717 mmHg 42%
    10:00 +27°C° 0 mm 3 mps 718 mmHg 35%
    11:00 +29°C° 0 mm 3 mps 718 mmHg 29%
    12:00 +30°C° 0 mm 3 mps 717 mmHg 26%
    13:00 +31°C° 0 mm 3 mps 716 mmHg 23%
    14:00 +31°C° 0 mm 3 mps 715 mmHg 20%
    15:00 +31°C° 0 mm 3 mps 715 mmHg 20%
    16:00 +30°C° 0 mm 4 mps 714 mmHg 21%
    17:00 +30°C° 0 mm 4 mps 714 mmHg 21%
    18:00 +28°C° 0 mm 4 mps 714 mmHg 23%
    19:00 +26°C° 0 mm 4 mps 715 mmHg 25%
    20:00 +22°C° 0 mm 4 mps 715 mmHg 28%
    21:00 +22°C° 0 mm 4 mps 715 mmHg 28%
    22:00 +21°C° 0 mm 4 mps 715 mmHg 29%
    23:00 +20°C° 0 mm 4 mps 715 mmHg 30%

    25 February, Tuesday

    Time Temperature Precipitation Wind Pressure Humidity
    00:00 +20°C° 0 mm 3 mps 715 mmHg 32%
    01:00 +19°C° 0 mm 3 mps 714 mmHg 35%
    02:00 +18°C° 0 mm 2 mps 714 mmHg 37%
    03:00 +18°C° 0 mm 2 mps 714 mmHg 40%
    04:00 +17°C° 0 mm 2 mps 714 mmHg 42%
    05:00 +17°C° 0 mm 2 mps 715 mmHg 44%
    06:00 +18°C° 0 mm 2 mps 715 mmHg 42%
    07:00 +20°C° 0 mm 2 mps 716 mmHg 40%
    08:00 +21°C° 0 mm 3 mps 717 mmHg 38%
    09:00 +24°C° 0 mm 3 mps 717 mmHg 32%
    10:00 +26°C° 0 mm 3 mps 717 mmHg 26%
    11:00 +29°C° 0 mm 3 mps 717 mmHg 20%
    12:00 +29°C° 0 mm 3 mps 716 mmHg 19%
    13:00 +30°C° 0 mm 3 mps 715 mmHg 17%
    14:00 +31°C° 0 mm 3 mps 715 mmHg 16%
    15:00 +30°C° 0 mm 2 mps 714 mmHg 17%
    16:00 +30°C° 0 mm 2 mps 714 mmHg 17%
    17:00 +30°C° 0 mm 2 mps 714 mmHg 18%
    18:00 +27°C° 0 mm 2 mps 714 mmHg 21%
    19:00 +25°C° 0 mm 2 mps 715 mmHg 23%
    20:00 +23°C° 0 mm 1 mps 715 mmHg 26%
    21:00 +21°C° 0 mm 2 mps 715 mmHg 27%
    22:00 +21°C° 0 mm 2 mps 715 mmHg 29%
    23:00 +20°C° 0 mm 2 mps 716 mmHg 30%

    26 February, Wednesday

    Time Temperature Precipitation Wind Pressure Humidity
    00:00 +20°C° 0 mm 2 mps 715 mmHg 32%
    01:00 +19°C° 0 mm 2 mps 715 mmHg 33%
    02:00 +19°C° 0 mm 3 mps 715 mmHg 35%
    03:00 +18°C° 0 mm 2 mps 715 mmHg 36%
    04:00 +18°C° 0 mm 2 mps 715 mmHg 37%
    05:00 +17°C° 0 mm 2 mps 715 mmHg 38%
    06:00 +19°C° 0 mm 2 mps 716 mmHg 36%
    07:00 +20°C° 0 mm 2 mps 717 mmHg 33%
    08:00 +23°C° 0 mm 2 mps 717 mmHg 30%
    09:00 +25°C° 0 mm 2 mps 718 mmHg 26%
    10:00 +28°C° 0 mm 2 mps 718 mmHg 22%
    11:00 +30°C° 0 mm 2 mps 718 mmHg 18%
    12:00 +31°C° 0 mm 2 mps 718 mmHg 16%
    13:00 +32°C° 0 mm 2 mps 717 mmHg 15%
    14:00 +32°C° 0 mm 1 mps 716 mmHg 14%
    15:00 +32°C° 0 mm 1 mps 716 mmHg 15%
    16:00 +31°C° 0 mm 1 mps 716 mmHg 16%
    17:00 +31°C° 0 mm 1 mps 715 mmHg 17%
    18:00 +29°C° 0 mm 1 mps 716 mmHg 19%
    19:00 +26°C° 0 mm 1 mps 716 mmHg 20%
    20:00 +22°C° 0 mm 0 mps 716 mmHg 22%
    21:00 +24°C° 0 mm 1 mps 716 mmHg 23%
    22:00 +23°C° 0 mm 1 mps 716 mmHg 24%
    23:00 +23°C° 0 mm 1 mps 716 mmHg 24%

    27 February, Thursday

    Time Temperature Precipitation Wind Pressure Humidity
    00:00 +22°C° 0 mm 1 mps 716 mmHg 25%
    01:00 +22°C° 0 mm 1 mps 715 mmHg 26%
    02:00 +21°C° 0 mm 1 mps 715 mmHg 27%
    03:00 +21°C° 0 mm 1 mps 715 mmHg 28%
    04:00 +19°C° 0 mm 2 mps 715 mmHg 29%
    05:00 +19°C° 0 mm 2 mps 715 mmHg 30%
    06:00 +20°C° 0 mm 2 mps 715 mmHg 28%
    07:00 +21°C° 0 mm 2 mps 716 mmHg 27%
    08:00 +24°C° 0 mm 2 mps 717 mmHg 25%
    09:00 +27°C° 0 mm 2 mps 717 mmHg 21%
    10:00 +30°C° 0 mm 3 mps 717 mmHg 18%
    11:00 +34°C° 0 mm 3 mps 718 mmHg 14%
    12:00 +34°C° 0 mm 3 mps 717 mmHg 13%
    13:00 +35°C° 0 mm 3 mps 716 mmHg 13%
    14:00 +36°C° 0 mm 3 mps 715 mmHg 12%
    15:00 +36°C° 0 mm 3 mps 715 mmHg 13%
    16:00 +35°C° 0 mm 2 mps 714 mmHg 13%
    17:00 +35°C° 0 mm 2 mps 714 mmHg 14%
    18:00 +31°C° 0 mm 2 mps 715 mmHg 16%
    19:00 +29°C° 0 mm 2 mps 715 mmHg 18%
    20:00 +26°C° 0 mm 2 mps 715 mmHg 20%
    21:00 +25°C° 0 mm 2 mps 715 mmHg 22%
    22:00 +24°C° 0 mm 2 mps 715 mmHg 23%
    23:00 +24°C° 0 mm 2 mps 715 mmHg 24%
    Show more